W9RPM Weather Reports


time (UTC)temp
C
wind
direction
speed
KPH
gust
KPH
rain 1hr
cm
rain 24hr
cm
rain mn
cm
humidity
%
barometer
mb
20260503081515 12 195 4.8 14.5 0.00 0.00 0.00 51 1010.5
20260503071512 12 212 6.4 14.5 0.00 0.00 0.00 48 1011.1
20260503054522 12 145 4.8 9.7 0.00 0.00 0.00 52 1011.8
20260503053053 12 142 4.8 12.9 0.00 0.00 0.00 51 1011.8
20260503051535 12 138 3.2 16.1 0.00 0.00 0.00 51 1012.0
20260503050019 12 142 4.8 12.9 0.00 0.00 0.00 51 1012.0
20260503044602 12 123 4.8 16.1 0.00 0.00 0.00 51 1012.0
20260503043030 12 136 3.2 11.3 0.00 0.00 0.00 52 1012.2
20260503041511 12 117 1.6 11.3 0.00 0.00 0.00 53 1012.2
20260503040052 12 149 4.8 14.5 0.00 0.00 0.00 53 1012.5
20260503034538 12 136 3.2 14.5 0.00 0.00 0.00 55 1012.6
20260503033013 12 146 6.4 12.9 0.00 0.00 0.00 58 1012.8
20260503031555 13 153 4.8 11.3 0.00 0.00 0.00 63 1013.0
20260503030035 13 155 3.2 8.0 0.00 0.00 0.00 60 1013.1
20260503024512 13 155 3.2 6.4 0.00 0.00 0.00 54 1013.1
20260503023055 13 150 1.6 6.4 0.00 0.00 0.00 56 1013.1
20260503021540 13 192 0.0 8.0 0.00 0.00 0.00 54 1013.2
20260503020025 13 186 1.6 6.4 0.00 0.00 0.00 47 1013.2
20260503014504 14 203 1.6 6.4 0.00 0.00 0.00 46 1013.2
20260503013043 15 170 1.6 8.0 0.00 0.00 0.00 45 1013.2